GLOBALSTAR M094 [+]

Last updated on Fri Dec 29 2023 00:02:57 GMT+0000 (Coordinated Universal Time)

1 39074U 13005C 23362.15063044 -.00000086 00000+0 10116-3 0 9997 2 39074 51.9980 17.2347 0000378 138.2386 221.8510 12.62270700504577
UTC large
Height (km)
Speed (km/s)
/
Latitude / Longitude
Inclination (degrees)
Orbital Period (minutes)
Azimuth
Elevation
Range (km)
Doppler Factor

Next 0 passes for location: London (51.5072 / 0.1276)

Sorry there are no passes over London.
GLOBALSTAR M094 [+]